,,,PA_Meas_PMT16A,,PR_Meas_QMR101_102,,RH_Meas_QMH101,,SR_Meas_QMS101,,TA_Meas_QMH101,,GenWind,,GenWind,
date,time,status,PA,status,PR,status,RH,status,SR,status,TA,status,DirAvg,status,SpdAvg,
2012-09-01, 00:00:04,VALID,1011.4,VALID,0,VALID,104,VALID,0,VALID,23.3823,VALID,75,VALID,0,
2012-09-01, 00:01:04,VALID,1011.4,VALID,0,VALID,104,VALID,0,VALID,23.361,VALID,75,VALID,0,
2012-09-01, 00:02:04,VALID,1011.4,VALID,0,VALID,104,VALID,0.112112,VALID,23.361,VALID,75,VALID,0,
2012-09-01, 00:03:04,VALID,1011.4,VALID,0,VALID,104,VALID,0,VALID,23.361,VALID,75,VALID,0,
2012-09-01, 00:04:04,VALID,1011.33,VALID,0,VALID,104,VALID,0.112112,VALID,23.3415,VALID,75,VALID,0,
2012-09-01, 00:05:04,VALID,1011.34,VALID,0,VALID,104,VALID,0.112112,VALID,23.3415,VALID,75,VALID,0,
2012-09-01, 00:06:04,VALID,1011.29,VALID,0,VALID,104,VALID,0.112112,VALID,23.322,VALID,75,VALID,0,
2012-09-01, 00:07:04,VALID,1011.29,VALID,0,VALID,104,VALID,0.112112,VALID,23.3026,VALID,75,VALID,0,
2012-09-01, 00:08:04,VALID,1011.28,VALID,0,VALID,104,VALID,0.112112,VALID,23.3026,VALID,75,VALID,0,
2012-09-01, 00:09:04,VALID,1011.27,VALID,0,VALID,104,VALID,0.224224,VALID,23.2831,VALID,75,VALID,0,
2012-09-01, 00:10:04,VALID,1011.24,VALID,0,VALID,104,VALID,0.112112,VALID,23.2618,VALID,75,VALID,0,
2012-09-01, 00:11:04,VALID,1011.23,VALID,0,VALID,104,VALID,0,VALID,23.2831,VALID,75,VALID,0,
2012-09-01, 00:12:04,VALID,1011.21,VALID,0,VALID,104,VALID,0.112112,VALID,23.2831,VALID,75,VALID,0,
2012-09-01, 00:13:04,VALID,1011.21,VALID,0,VALID,104,VALID,0.112112,VALID,23.2636,VALID,75,VALID,0,
2012-09-01, 00:14:04,VALID,1011.21,VALID,0,VALID,104,VALID,0.112112,VALID,23.2636,VALID,75,VALID,0,
2012-09-01, 00:15:04,VALID,1011.17,VALID,0,VALID,104,VALID,0.112112,VALID,23.2441,VALID,75,VALID,0,
2012-09-01, 00:16:04,VALID,1011.15,VALID,0,VALID,104,VALID,0.112112,VALID,23.2441,VALID,75,VALID,0,
2012-09-01, 00:17:04,VALID,1011.13,VALID,0,VALID,104,VALID,0.112112,VALID,23.2636,VALID,75,VALID,0,
2012-09-01, 00:18:04,VALID,1011.11,VALID,0,VALID,104,VALID,0.112112,VALID,23.2441,VALID,75,VALID,0,
2012-09-01, 00:19:04,VALID,1011.06,VALID,0,VALID,104,VALID,0.112112,VALID,23.2636,VALID,75,VALID,0,
2012-09-01, 00:20:04,VALID,1011.05,VALID,0,VALID,104,VALID,0.112112,VALID,23.2636,VALID,75,VALID,0,
2012-09-01, 00:21:04,VALID,1011,VALID,0,VALID,104,VALID,0.112112,VALID,23.2636,VALID,75,VALID,0,
2012-09-01, 00:22:04,VALID,1010.97,VALID,0,VALID,104,VALID,0.112112,VALID,23.2636,VALID,75,VALID,0,
2012-09-01, 00:23:04,VALID,1010.94,VALID,0,VALID,104,VALID,0.112112,VALID,23.2654,VALID,75,VALID,0,
2012-09-01, 00:24:04,VALID,1010.93,VALID,0,VALID,104,VALID,0.112112,VALID,23.2636,VALID,75,VALID,0,
2012-09-01, 00:25:04,VALID,1010.9,VALID,0,VALID,104,VALID,0.112112,VALID,23.2618,VALID,75,VALID,0,
2012-09-01, 00:26:04,VALID,1010.87,VALID,0,VALID,104,VALID,0.112112,VALID,23.2848,VALID,75,VALID,0,
2012-09-01, 00:27:04,VALID,1010.83,VALID,0,VALID,104,VALID,0.112112,VALID,23.2441,VALID,75,VALID,0,
2012-09-01, 00:28:04,VALID,1010.8,VALID,0,VALID,104,VALID,0.112112,VALID,23.2654,VALID,75,VALID,0,
2012-09-01, 00:29:04,VALID,1010.76,VALID,0,VALID,104,VALID,0.112112,VALID,23.2441,VALID,75,VALID,0,
2012-09-01, 00:30:04,VALID,1010.77,VALID,0,VALID,104,VALID,0.112112,VALID,23.2441,VALID,75,VALID,0,
2012-09-01, 00:31:04,VALID,1010.76,VALID,0,VALID,104,VALID,0.112112,VALID,23.2636,VALID,75,VALID,0,
2012-09-01, 00:32:04,VALID,1010.75,VALID,0,VALID,104,VALID,0.112112,VALID,23.2246,VALID,75,VALID,0,
2012-09-01, 00:33:04,VALID,1010.75,VALID,0,VALID,104,VALID,0.112112,VALID,23.2441,VALID,75,VALID,0,
2012-09-01, 00:34:04,VALID,1010.72,VALID,0,VALID,104,VALID,0.112112,VALID,23.2246,VALID,75,VALID,0,
2012-09-01, 00:35:04,VALID,1010.72,VALID,0,VALID,104,VALID,0.112112,VALID,23.2246,VALID,75,VALID,0.177344,
2012-09-01, 00:36:04,VALID,1010.72,VALID,0,VALID,104,VALID,0.112112,VALID,23.2246,VALID,75,VALID,0,
2012-09-01, 00:37:04,VALID,1010.69,VALID,0,VALID,104,VALID,0.112112,VALID,23.2051,VALID,75,VALID,0,
2012-09-01, 00:38:04,VALID,1010.7,VALID,0,VALID,104,VALID,0.112112,VALID,23.2051,VALID,75,VALID,0,
2012-09-01, 00:39:04,VALID,1010.69,VALID,0,VALID,104,VALID,0.112112,VALID,23.2051,VALID,75,VALID,0,
2012-09-01, 00:40:04,VALID,1010.68,VALID,0,VALID,104,VALID,0.112112,VALID,23.2246,VALID,75,VALID,0,
2012-09-01, 00:41:04,VALID,1010.64,VALID,0,VALID,104,VALID,0.112112,VALID,23.2441,VALID,75,VALID,0,
2012-09-01, 00:42:04,VALID,1010.65,VALID,0,VALID,104,VALID,0.112112,VALID,23.2441,VALID,109,VALID,0,
2012-09-01, 00:43:04,VALID,1010.62,VALID,0,VALID,104,VALID,0.112112,VALID,23.2441,VALID,116,VALID,0,
2012-09-01, 00:44:04,VALID,1010.58,VALID,0,VALID,104,VALID,0.112112,VALID,23.2246,VALID,116,VALID,0,
2012-09-01, 00:45:04,VALID,1010.58,VALID,0,VALID,104,VALID,0,VALID,23.2246,VALID,116,VALID,0,
2012-09-01, 00:46:04,VALID,1010.56,VALID,0,VALID,104,VALID,0.112112,VALID,23.2051,VALID,116,VALID,0,
2012-09-01, 00:47:04,VALID,1010.53,VALID,0,VALID,104,VALID,0.112112,VALID,23.2051,VALID,111,VALID,0,
2012-09-01, 00:48:04,VALID,1010.51,VALID,0,VALID,104,VALID,0.112112,VALID,23.2051,VALID,81,VALID,0.430469,
2012-09-01, 00:49:04,VALID,1010.54,VALID,0,VALID,104,VALID,0.112112,VALID,23.2051,VALID,76,VALID,0.65,
2012-09-01, 00:50:04,VALID,1010.5,VALID,0,VALID,104,VALID,0.112112,VALID,23.2051,VALID,69,VALID,0.0703125,
2012-09-01, 00:51:04,VALID,1010.5,VALID,0,VALID,104,VALID,0,VALID,23.2051,VALID,64,VALID,0.253125,
2012-09-01, 00:52:04,VALID,1010.49,VALID,0,VALID,104,VALID,0.112112,VALID,23.2051,VALID,64,VALID,0.0289063,
2012-09-01, 00:53:04,VALID,1010.47,VALID,0,VALID,104,VALID,0.112112,VALID,23.2051,VALID,64,VALID,0,
2012-09-01, 00:54:04,VALID,1010.43,VALID,0,VALID,104,VALID,0.112112,VALID,23.2246,VALID,64,VALID,0,
2012-09-01, 00:55:04,VALID,1010.41,VALID,0,VALID,104,VALID,0.112112,VALID,23.2051,VALID,64,VALID,0,
2012-09-01, 00:56:04,VALID,1010.41,VALID,0,VALID,104,VALID,0.112112,VALID,23.1857,VALID,64,VALID,0,
2012-09-01, 00:57:04,VALID,1010.37,VALID,0,VALID,104,VALID,0.112112,VALID,23.1857,VALID,64,VALID,0,
2012-09-01, 00:58:04,VALID,1010.32,VALID,0,VALID,104,VALID,0.112112,VALID,23.1857,VALID,64,VALID,0,
2012-09-01, 00:59:04,VALID,1010.3,VALID,0,VALID,104,VALID,0,VALID,23.1857,VALID,64,VALID,0,
2012-09-01, 01:00:04,VALID,1010.26,VALID,0,VALID,104,VALID,0,VALID,23.1662,VALID,64,VALID,0,
2012-09-01, 01:01:04,VALID,1010.25,VALID,0,VALID,104,VALID,0.112112,VALID,23.1679,VALID,64,VALID,0,
2012-09-01, 01:02:04,VALID,1010.25,VALID,0,VALID,104,VALID,0,VALID,23.1697,VALID,64,VALID,0,
2012-09-01, 01:03:04,VALID,1010.25,VALID,0,VALID,104,VALID,0.112112,VALID,23.1272,VALID,64,VALID,0,
2012-09-01, 01:04:04,VALID,1010.21,VALID,0,VALID,104,VALID,0.112112,VALID,23.1272,VALID,64,VALID,0,
2012-09-01, 01:05:04,VALID,1010.2,VALID,0,VALID,104,VALID,0,VALID,23.1077,VALID,64,VALID,0,
2012-09-01, 01:06:04,VALID,1010.19,VALID,0,VALID,104,VALID,0,VALID,23.1095,VALID,103,VALID,0.260547,
2012-09-01, 01:07:04,VALID,1010.2,VALID,0,VALID,104,VALID,0,VALID,23.0883,VALID,103,VALID,0,
2012-09-01, 01:08:04,VALID,1010.18,VALID,0,VALID,104,VALID,0.112112,VALID,23.09,VALID,103,VALID,0,
2012-09-01, 01:09:04,VALID,1010.12,VALID,0,VALID,104,VALID,0,VALID,23.0705,VALID,103,VALID,0,
2012-09-01, 01:10:04,VALID,1010.12,VALID,0,VALID,104,VALID,0,VALID,23.0705,VALID,103,VALID,0,
2012-09-01, 01:11:04,VALID,1010.12,VALID,0,VALID,104,VALID,0,VALID,23.0705,VALID,103,VALID,0,
2012-09-01, 01:12:04,VALID,1010.08,VALID,0,VALID,104,VALID,0,VALID,23.09,VALID,103,VALID,0,
2012-09-01, 01:13:04,VALID,1010.03,VALID,0,VALID,104,VALID,0,VALID,23.09,VALID,103,VALID,0,
2012-09-01, 01:14:04,VALID,1009.99,VALID,0,VALID,104,VALID,0,VALID,23.0688,VALID,103,VALID,0,
2012-09-01, 01:15:04,VALID,1009.98,VALID,0,VALID,104,VALID,0,VALID,23.0883,VALID,92,VALID,0,
2012-09-01, 01:16:04,VALID,1009.98,VALID,0,VALID,104,VALID,0,VALID,23.09,VALID,80,VALID,0,
2012-09-01, 01:17:04,VALID,1010.02,VALID,0,VALID,104,VALID,0,VALID,23.1095,VALID,68,VALID,0,
2012-09-01, 01:18:04,VALID,1010,VALID,0,VALID,104,VALID,0,VALID,23.129,VALID,68,VALID,0,
2012-09-01, 01:19:04,VALID,1009.98,VALID,0,VALID,104,VALID,0.112112,VALID,23.0883,VALID,68,VALID,0,
2012-09-01, 01:20:04,VALID,1010.01,VALID,0,VALID,104,VALID,0.112112,VALID,23.129,VALID,68,VALID,0,
2012-09-01, 01:21:04,VALID,1010.01,VALID,0,VALID,104,VALID,0.112112,VALID,23.1077,VALID,68,VALID,0,
2012-09-01, 01:22:04,VALID,1009.98,VALID,0,VALID,104,VALID,0.112112,VALID,23.1077,VALID,68,VALID,0,
2012-09-01, 01:23:04,VALID,1010,VALID,0,VALID,104,VALID,0.112112,VALID,23.0883,VALID,68,VALID,0,
2012-09-01, 01:24:04,VALID,1009.96,VALID,0,VALID,104,VALID,0,VALID,23.09,VALID,68,VALID,0,
2012-09-01, 01:25:04,VALID,1009.94,VALID,0,VALID,104,VALID,0,VALID,23.09,VALID,68,VALID,0,
2012-09-01, 01:26:04,VALID,1009.95,VALID,0,VALID,104,VALID,0.112112,VALID,23.09,VALID,68,VALID,0,
2012-09-01, 01:27:04,VALID,1009.91,VALID,0,VALID,104,VALID,0,VALID,23.0688,VALID,67,VALID,0.104687,
2012-09-01, 01:28:04,VALID,1009.91,VALID,0,VALID,104,VALID,0,VALID,23.0705,VALID,67,VALID,0,
2012-09-01, 01:29:04,VALID,1009.89,VALID,0,VALID,104,VALID,0.112112,VALID,23.0493,VALID,67,VALID,0,
2012-09-01, 01:30:04,VALID,1009.87,VALID,0,VALID,104,VALID,0.112112,VALID,23.0298,VALID,67,VALID,0,
2012-09-01, 01:31:04,VALID,1009.87,VALID,0,VALID,104,VALID,0.112112,VALID,23.0298,VALID,67,VALID,0,
2012-09-01, 01:32:04,VALID,1009.84,VALID,0,VALID,104,VALID,0,VALID,23.0103,VALID,67,VALID,0,
2012-09-01, 01:33:04,VALID,1009.81,VALID,0,VALID,104,VALID,0.112112,VALID,23.0298,VALID,67,VALID,0,
2012-09-01, 01:34:04,VALID,1009.8,VALID,0,VALID,104,VALID,0,VALID,23.0316,VALID,67,VALID,0,
2012-09-01, 01:35:04,VALID,1009.76,VALID,0,VALID,104,VALID,0,VALID,23.0316,VALID,67,VALID,0,
2012-09-01, 01:36:04,VALID,1009.73,VALID,0,VALID,104,VALID,0.112112,VALID,23.0121,VALID,67,VALID,0,
2012-09-01, 01:37:04,VALID,1009.71,VALID,0,VALID,104,VALID,0,VALID,23.0121,VALID,67,VALID,0,
2012-09-01, 01:38:04,VALID,1009.68,VALID,0,VALID,104,VALID,0,VALID,22.9714,VALID,67,VALID,0,
2012-09-01, 01:39:04,VALID,1009.63,VALID,0,VALID,104,VALID,0,VALID,22.9731,VALID,65,VALID,0,
2012-09-01, 01:40:04,VALID,1009.63,VALID,0,VALID,104,VALID,0.112112,VALID,22.9536,VALID,65,VALID,0,
2012-09-01, 01:41:04,VALID,1009.6,VALID,0,VALID,104,VALID,0,VALID,22.9147,VALID,65,VALID,0,
2012-09-01, 01:42:04,VALID,1009.57,VALID,0,VALID,104,VALID,0,VALID,22.9147,VALID,65,VALID,0,
2012-09-01, 01:43:04,VALID,1009.54,VALID,0,VALID,104,VALID,0,VALID,22.8757,VALID,65,VALID,0,
2012-09-01, 01:44:04,VALID,1009.52,VALID,0,VALID,104,VALID,0,VALID,22.8562,VALID,65,VALID,0,
2012-09-01, 01:45:04,VALID,1009.54,VALID,0,VALID,104,VALID,0.112112,VALID,22.8368,VALID,65,VALID,0,
2012-09-01, 01:46:04,VALID,1009.48,VALID,0,VALID,104,VALID,0.112112,VALID,22.8155,VALID,65,VALID,0,
2012-09-01, 01:47:04,VALID,1009.5,VALID,0,VALID,104,VALID,0,VALID,22.7978,VALID,65,VALID,0,
2012-09-01, 01:48:04,VALID,1009.47,VALID,0,VALID,104,VALID,0.112112,VALID,22.7766,VALID,65,VALID,0,
2012-09-01, 01:49:04,VALID,1009.47,VALID,0,VALID,104,VALID,0,VALID,22.7978,VALID,65,VALID,0,
2012-09-01, 01:50:04,VALID,1009.44,VALID,0,VALID,104,VALID,0.112112,VALID,22.7978,VALID,65,VALID,0,
2012-09-01, 01:51:04,VALID,1009.42,VALID,0,VALID,104,VALID,0,VALID,22.7978,VALID,65,VALID,0,
2012-09-01, 01:52:04,VALID,1009.4,VALID,0,VALID,104,VALID,0.112112,VALID,22.8173,VALID,65,VALID,0,
2012-09-01, 01:53:04,VALID,1009.37,VALID,0,VALID,104,VALID,0.112112,VALID,22.7961,VALID,65,VALID,0,
2012-09-01, 01:54:04,VALID,1009.38,VALID,0,VALID,104,VALID,0.112112,VALID,22.8173,VALID,65,VALID,0,
2012-09-01, 01:55:04,VALID,1009.37,VALID,0,VALID,104,VALID,0,VALID,22.8173,VALID,65,VALID,0,
2012-09-01, 01:56:04,VALID,1009.37,VALID,0,VALID,104,VALID,0,VALID,22.8173,VALID,65,VALID,0,
2012-09-01, 01:57:04,VALID,1009.36,VALID,0,VALID,104,VALID,0,VALID,22.8368,VALID,65,VALID,0,
2012-09-01, 01:58:04,VALID,1009.36,VALID,0,VALID,104,VALID,0,VALID,22.7961,VALID,65,VALID,0,
2012-09-01, 01:59:04,VALID,1009.34,VALID,0,VALID,104,VALID,0,VALID,22.7978,VALID,65,VALID,0,
2012-09-01, 02:00:04,VALID,1009.34,VALID,0,VALID,104,VALID,0,VALID,22.7766,VALID,65,VALID,0,
2012-09-01, 02:01:04,VALID,1009.36,VALID,0,VALID,104,VALID,0.112112,VALID,22.7766,VALID,65,VALID,0,
2012-09-01, 02:02:04,VALID,1009.34,VALID,0,VALID,104,VALID,0,VALID,22.8173,VALID,65,VALID,0,
2012-09-01, 02:03:04,VALID,1009.36,VALID,0,VALID,104,VALID,0.112112,VALID,22.8173,VALID,65,VALID,0,
2012-09-01, 02:04:04,VALID,1009.36,VALID,0,VALID,104,VALID,0,VALID,22.7961,VALID,65,VALID,0,
2012-09-01, 02:05:04,VALID,1009.34,VALID,0,VALID,104,VALID,0,VALID,22.8173,VALID,65,VALID,0,
2012-09-01, 02:06:04,VALID,1009.32,VALID,0,VALID,104,VALID,0,VALID,22.8173,VALID,65,VALID,0,
2012-09-01, 02:07:04,VALID,1009.31,VALID,0,VALID,104,VALID,0,VALID,22.7978,VALID,65,VALID,0,
2012-09-01, 02:08:04,VALID,1009.27,VALID,0,VALID,104,VALID,0,VALID,22.7783,VALID,65,VALID,0,
2012-09-01, 02:09:04,VALID,1009.23,VALID,0,VALID,104,VALID,0.112112,VALID,22.7571,VALID,65,VALID,0,
2012-09-01, 02:10:04,VALID,1009.21,VALID,0,VALID,104,VALID,0,VALID,22.7571,VALID,65,VALID,0,
2012-09-01, 02:11:04,VALID,1009.15,VALID,0,VALID,104,VALID,0,VALID,22.7783,VALID,65,VALID,0,
2012-09-01, 02:12:04,VALID,1009.14,VALID,0,VALID,104,VALID,0,VALID,22.7394,VALID,65,VALID,0,
2012-09-01, 02:13:04,VALID,1009.11,VALID,0,VALID,104,VALID,0,VALID,22.7394,VALID,65,VALID,0,
2012-09-01, 02:14:04,VALID,1009.11,VALID,0,VALID,104,VALID,0,VALID,22.7199,VALID,65,VALID,0,
2012-09-01, 02:15:04,VALID,1009.12,VALID,0,VALID,104,VALID,0,VALID,22.6792,VALID,65,VALID,0,
2012-09-01, 02:16:04,VALID,1009.13,VALID,0,VALID,104,VALID,0,VALID,22.6809,VALID,65,VALID,0,
2012-09-01, 02:17:04,VALID,1009.15,VALID,0,VALID,104,VALID,0,VALID,22.7199,VALID,65,VALID,0,
2012-09-01, 02:18:04,VALID,1009.13,VALID,0,VALID,104,VALID,0,VALID,22.7783,VALID,65,VALID,0,
2012-09-01, 02:19:04,VALID,1009.14,VALID,0,VALID,104,VALID,0.112112,VALID,22.7571,VALID,65,VALID,0,
2012-09-01, 02:20:04,VALID,1009.13,VALID,0,VALID,104,VALID,0,VALID,22.7978,VALID,65,VALID,0,
2012-09-01, 02:21:04,VALID,1009.16,VALID,0,VALID,104,VALID,0.112112,VALID,22.8155,VALID,65,VALID,0,
2012-09-01, 02:22:04,VALID,1009.14,VALID,0,VALID,104,VALID,0,VALID,22.8368,VALID,65,VALID,0,
2012-09-01, 02:23:04,VALID,1009.12,VALID,0,VALID,104,VALID,0,VALID,22.8562,VALID,65,VALID,0,
2012-09-01, 02:24:04,VALID,1009.13,VALID,0,VALID,104,VALID,0,VALID,22.835,VALID,65,VALID,0,
2012-09-01, 02:25:04,VALID,1009.11,VALID,0,VALID,104,VALID,0,VALID,22.8545,VALID,65,VALID,0,
2012-09-01, 02:26:04,VALID,1009.15,VALID,0,VALID,104,VALID,0,VALID,22.8757,VALID,65,VALID,0,
2012-09-01, 02:27:04,VALID,1009.15,VALID,0,VALID,104,VALID,0,VALID,22.8757,VALID,65,VALID,0,
2012-09-01, 02:28:04,VALID,1009.16,VALID,0,VALID,104,VALID,0,VALID,22.8562,VALID,65,VALID,0,
2012-09-01, 02:29:04,VALID,1009.18,VALID,0,VALID,104,VALID,0,VALID,22.8155,VALID,65,VALID,0,
2012-09-01, 02:30:04,VALID,1009.16,VALID,0,VALID,104,VALID,0,VALID,22.8173,VALID,65,VALID,0,
2012-09-01, 02:31:04,VALID,1009.17,VALID,0,VALID,104,VALID,0,VALID,22.7978,VALID,65,VALID,0,
2012-09-01, 02:32:04,VALID,1009.15,VALID,0,VALID,104,VALID,0.112112,VALID,22.7978,VALID,65,VALID,0,
2012-09-01, 02:33:04,VALID,1009.13,VALID,0,VALID,104,VALID,0,VALID,22.7978,VALID,65,VALID,0,
2012-09-01, 02:34:04,VALID,1009.13,VALID,0,VALID,104,VALID,0,VALID,22.8173,VALID,65,VALID,0,
2012-09-01, 02:35:04,VALID,1009.1,VALID,0,VALID,104,VALID,0,VALID,22.8368,VALID,65,VALID,0,
2012-09-01, 02:36:04,VALID,1009.13,VALID,0,VALID,104,VALID,0,VALID,22.8545,VALID,65,VALID,0,
2012-09-01, 02:37:04,VALID,1009.12,VALID,0,VALID,104,VALID,0,VALID,22.874,VALID,65,VALID,0,
2012-09-01, 02:38:04,VALID,1009.13,VALID,0,VALID,104,VALID,0,VALID,22.9147,VALID,65,VALID,0,
2012-09-01, 02:39:04,VALID,1009.12,VALID,0,VALID,104,VALID,0,VALID,22.9129,VALID,65,VALID,0,
2012-09-01, 02:40:04,VALID,1009.12,VALID,0,VALID,104,VALID,0,VALID,22.9324,VALID,65,VALID,0,
2012-09-01, 02:41:04,VALID,1009.13,VALID,0,VALID,104,VALID,0,VALID,22.9714,VALID,65,VALID,0,
2012-09-01, 02:42:04,VALID,1009.14,VALID,0,VALID,104,VALID,0,VALID,23.0103,VALID,65,VALID,0,
2012-09-01, 02:43:04,VALID,1009.09,VALID,0,VALID,104,VALID,0.112112,VALID,23.0316,VALID,65,VALID,0,
2012-09-01, 02:44:04,VALID,1009.13,VALID,0,VALID,104,VALID,0,VALID,23.0511,VALID,65,VALID,0,
2012-09-01, 02:45:04,VALID,1009.14,VALID,0,VALID,104,VALID,0,VALID,23.0316,VALID,65,VALID,0,
2012-09-01, 02:46:04,VALID,1009.1,VALID,0,VALID,104,VALID,0,VALID,22.9731,VALID,65,VALID,0,
2012-09-01, 02:47:04,VALID,1009.1,VALID,0,VALID,104,VALID,0,VALID,22.9129,VALID,65,VALID,0,
2012-09-01, 02:48:04,VALID,1009.1,VALID,0,VALID,104,VALID,0.112112,VALID,22.8368,VALID,65,VALID,0,
2012-09-01, 02:49:04,VALID,1009.07,VALID,0,VALID,104,VALID,0.112112,VALID,22.7571,VALID,65,VALID,0,
2012-09-01, 02:50:04,VALID,1009.04,VALID,0,VALID,104,VALID,0,VALID,22.6402,VALID,65,VALID,0,
2012-09-01, 02:51:04,VALID,1009.02,VALID,0,VALID,104,VALID,0,VALID,22.6013,VALID,65,VALID,0,
2012-09-01, 02:52:04,VALID,1009.03,VALID,0,VALID,104,VALID,0,VALID,22.6225,VALID,65,VALID,0,
2012-09-01, 02:53:04,VALID,1009.04,VALID,0,VALID,104,VALID,0.112112,VALID,22.603,VALID,65,VALID,0,
2012-09-01, 02:54:04,VALID,1008.98,VALID,0,VALID,104,VALID,0.112112,VALID,22.5818,VALID,65,VALID,0,
2012-09-01, 02:55:04,VALID,1008.97,VALID,0,VALID,104,VALID,0.112112,VALID,22.564,VALID,65,VALID,0,
2012-09-01, 02:56:04,VALID,1008.97,VALID,0,VALID,104,VALID,0,VALID,22.564,VALID,65,VALID,0,
2012-09-01, 02:57:04,VALID,1008.95,VALID,0,VALID,104,VALID,0,VALID,22.603,VALID,65,VALID,0,
2012-09-01, 02:58:04,VALID,1008.94,VALID,0,VALID,104,VALID,0.112112,VALID,22.6208,VALID,65,VALID,0,
2012-09-01, 02:59:04,VALID,1008.94,VALID,0,VALID,104,VALID,0,VALID,22.7588,VALID,65,VALID,0.527734,
2012-09-01, 03:00:04,VALID,1008.96,VALID,0,VALID,104,VALID,0,VALID,22.8368,VALID,99,VALID,0.566016,
2012-09-01, 03:01:04,VALID,1008.94,VALID,0,VALID,104,VALID,0,VALID,22.9147,VALID,100,VALID,0.239453,
2012-09-01, 03:02:04,VALID,1008.95,VALID,0,VALID,104,VALID,0,VALID,22.9714,VALID,112,VALID,0.603516,
2012-09-01, 03:03:04,VALID,1008.96,VALID,0,VALID,104,VALID,0,VALID,23.0511,VALID,123,VALID,0.851953,
2012-09-01, 03:04:04,VALID,1008.99,VALID,0,VALID,104,VALID,0.112112,VALID,23.0511,VALID,106,VALID,0.698047,
2012-09-01, 03:05:04,VALID,1008.98,VALID,0,VALID,104,VALID,0,VALID,23.1095,VALID,114,VALID,0.659766,
2012-09-01, 03:06:04,VALID,1008.97,VALID,0,VALID,104,VALID,0,VALID,23.1272,VALID,108,VALID,0.564062,
2012-09-01, 03:07:04,VALID,1008.97,VALID,0,VALID,104,VALID,0,VALID,23.129,VALID,108,VALID,0.213672,
2012-09-01, 03:08:04,VALID,1008.96,VALID,0,VALID,104,VALID,0,VALID,23.1485,VALID,108,VALID,0,
2012-09-01, 03:09:04,VALID,1008.96,VALID,0,VALID,104,VALID,0,VALID,23.1679,VALID,108,VALID,0,
2012-09-01, 03:10:04,VALID,1008.99,VALID,0,VALID,104,VALID,0,VALID,23.1485,VALID,108,VALID,0,
2012-09-01, 03:11:04,VALID,1008.96,VALID,0,VALID,104,VALID,0,VALID,23.1077,VALID,108,VALID,0,
2012-09-01, 03:12:04,VALID,1008.96,VALID,0,VALID,104,VALID,0,VALID,23.129,VALID,108,VALID,0,
2012-09-01, 03:13:04,VALID,1008.99,VALID,0,VALID,104,VALID,0,VALID,23.1485,VALID,109,VALID,0,
2012-09-01, 03:14:04,VALID,1008.99,VALID,0,VALID,104,VALID,0,VALID,23.129,VALID,109,VALID,0,
2012-09-01, 03:15:04,VALID,1009.03,VALID,0,VALID,104,VALID,0,VALID,23.129,VALID,109,VALID,0,
2012-09-01, 03:16:04,VALID,1009.06,VALID,0,VALID,104,VALID,0,VALID,23.129,VALID,109,VALID,0,
2012-09-01, 03:17:04,VALID,1009.06,VALID,0,VALID,104,VALID,0,VALID,23.1077,VALID,109,VALID,0,
2012-09-01, 03:18:04,VALID,1009.08,VALID,0,VALID,104,VALID,0,VALID,23.1679,VALID,119,VALID,0,
2012-09-01, 03:19:04,VALID,1009.06,VALID,0,VALID,104,VALID,0,VALID,23.129,VALID,119,VALID,0,
2012-09-01, 03:20:04,VALID,1009.08,VALID,0,VALID,104,VALID,0,VALID,23.1272,VALID,119,VALID,0,
2012-09-01, 03:21:04,VALID,1009.07,VALID,0,VALID,104,VALID,0.112112,VALID,23.1679,VALID,119,VALID,0,
2012-09-01, 03:22:04,VALID,1009.06,VALID,0,VALID,104,VALID,0.112112,VALID,23.0883,VALID,119,VALID,0,
2012-09-01, 03:23:04,VALID,1009.07,VALID,0,VALID,104,VALID,0,VALID,23.0121,VALID,119,VALID,0,
2012-09-01, 03:24:04,VALID,1009.06,VALID,0,VALID,104,VALID,0,VALID,22.9731,VALID,119,VALID,0,
2012-09-01, 03:25:04,VALID,1009.06,VALID,0,VALID,104,VALID,0,VALID,22.9342,VALID,119,VALID,0,
2012-09-01, 03:26:04,VALID,1009.06,VALID,0,VALID,104,VALID,0,VALID,22.874,VALID,119,VALID,0,
2012-09-01, 03:27:04,VALID,1009.04,VALID,0,VALID,104,VALID,0,VALID,22.874,VALID,119,VALID,0,
2012-09-01, 03:28:04,VALID,1009.05,VALID,0,VALID,104,VALID,0,VALID,22.8757,VALID,119,VALID,0,
2012-09-01, 03:29:04,VALID,1009.06,VALID,0,VALID,104,VALID,0,VALID,22.8545,VALID,119,VALID,0,
2012-09-01, 03:30:04,VALID,1009.04,VALID,0,VALID,104,VALID,0,VALID,22.8562,VALID,119,VALID,0,
2012-09-01, 03:31:04,VALID,1009.06,VALID,0,VALID,104,VALID,0,VALID,22.8545,VALID,119,VALID,0,
2012-09-01, 03:32:04,VALID,1009.06,VALID,0,VALID,104,VALID,0.112112,VALID,22.835,VALID,119,VALID,0,
2012-09-01, 03:33:04,VALID,1009.06,VALID,0,VALID,104,VALID,0,VALID,22.8368,VALID,119,VALID,0,
2012-09-01, 03:34:04,VALID,1009.08,VALID,0,VALID,104,VALID,0,VALID,22.8368,VALID,119,VALID,0,
2012-09-01, 03:35:04,VALID,1009.06,VALID,0,VALID,104,VALID,0,VALID,22.8368,VALID,119,VALID,0,
2012-09-01, 03:36:04,VALID,1009.08,VALID,0,VALID,104,VALID,0,VALID,22.8368,VALID,119,VALID,0,
2012-09-01, 03:37:04,VALID,1009.09,VALID,0,VALID,104,VALID,0.112112,VALID,22.8368,VALID,119,VALID,0,
2012-09-01, 03:38:04,VALID,1009.06,VALID,0,VALID,104,VALID,0.112112,VALID,22.8545,VALID,119,VALID,0,
2012-09-01, 03:39:04,VALID,1009.07,VALID,0,VALID,104,VALID,0,VALID,22.9342,VALID,119,VALID,0,
2012-09-01, 03:40:04,VALID,1009.06,VALID,0,VALID,104,VALID,0.112112,VALID,22.9731,VALID,119,VALID,0,
2012-09-01, 03:41:04,VALID,1009.06,VALID,0,VALID,104,VALID,0,VALID,22.9324,VALID,119,VALID,0,
2012-09-01, 03:42:04,VALID,1009.1,VALID,0,VALID,104,VALID,0,VALID,22.9129,VALID,119,VALID,0,
2012-09-01, 03:43:04,VALID,1009.11,VALID,0,VALID,104,VALID,0,VALID,22.9536,VALID,119,VALID,0,
2012-09-01, 03:44:04,VALID,1009.1,VALID,0,VALID,104,VALID,0,VALID,22.9731,VALID,119,VALID,0,
2012-09-01, 03:45:04,VALID,1009.14,VALID,0,VALID,104,VALID,0.112112,VALID,22.9731,VALID,119,VALID,0,
2012-09-01, 03:46:04,VALID,1009.14,VALID,0,VALID,104,VALID,0,VALID,22.9536,VALID,119,VALID,0,
2012-09-01, 03:47:04,VALID,1009.11,VALID,0,VALID,104,VALID,0.112112,VALID,22.9129,VALID,119,VALID,0,
2012-09-01, 03:48:04,VALID,1009.12,VALID,0,VALID,104,VALID,0,VALID,22.9147,VALID,119,VALID,0,
2012-09-01, 03:49:04,VALID,1009.11,VALID,0,VALID,104,VALID,0,VALID,22.9147,VALID,119,VALID,0,
2012-09-01, 03:50:04,VALID,1009.11,VALID,0,VALID,104,VALID,0,VALID,22.9129,VALID,119,VALID,0,
2012-09-01, 03:51:04,VALID,1009.11,VALID,0,VALID,104,VALID,0,VALID,22.9731,VALID,119,VALID,0,
2012-09-01, 03:52:04,VALID,1009.12,VALID,0,VALID,104,VALID,0,VALID,22.9714,VALID,119,VALID,0,
2012-09-01, 03:53:04,VALID,1009.13,VALID,0,VALID,104,VALID,0,VALID,22.9731,VALID,119,VALID,0,
2012-09-01, 03:54:04,VALID,1009.15,VALID,0,VALID,104,VALID,0,VALID,22.9536,VALID,119,VALID,0,
2012-09-01, 03:55:04,VALID,1009.15,VALID,0,VALID,104,VALID,0,VALID,22.9554,VALID,119,VALID,0,
2012-09-01, 03:56:04,VALID,1009.17,VALID,0,VALID,104,VALID,0,VALID,22.8952,VALID,119,VALID,0,
2012-09-01, 03:57:04,VALID,1009.15,VALID,0,VALID,104,VALID,0,VALID,22.8368,VALID,119,VALID,0,
2012-09-01, 03:58:04,VALID,1009.19,VALID,0,VALID,104,VALID,0,VALID,22.8173,VALID,119,VALID,0,
2012-09-01, 03:59:04,VALID,1009.21,VALID,0,VALID,104,VALID,0,VALID,22.7588,VALID,119,VALID,0,
2012-09-01, 04:00:04,VALID,1009.21,VALID,0,VALID,104,VALID,0,VALID,22.6614,VALID,105,VALID,0,
2012-09-01, 04:01:04,VALID,1009.21,VALID,0,VALID,104,VALID,0,VALID,22.6225,VALID,60,VALID,0,
2012-09-01, 04:02:04,VALID,1009.2,VALID,0,VALID,104,VALID,0,VALID,22.6225,VALID,54,VALID,0,
2012-09-01, 04:03:04,VALID,1009.23,VALID,0,VALID,104,VALID,0,VALID,22.6225,VALID,54,VALID,0,